Location: Hamayl? Da??
(36.7028°N, 30.1716°E)
Time: 15:24:14
(UTC+00:00)

Tiros 1 despin weight - Visible Passes

Search period start: 02 November 2024 00:00
Search period end: 12 November 2024 00:00
Orbit: 572 x 612 km, 48.2° (Epoch: 31 October)

Date Brightness Start Highest point End Pass type
(mag) Time Alt. Az. Time Alt. Az. Time Alt. Az.
05 Nov ? 03:16:02 10° SSE 03:18:42 16° SE 03:21:21 10° E visible
06 Nov ? 03:22:30 10° SSW 03:26:17 28° SE 03:30:02 10° ENE visible
07 Nov ? 03:29:38 10° SW 03:33:54 50° SE 03:38:09 10° ENE visible
08 Nov ? 01:59:12 11° SSE 02:01:09 13° SE 02:03:19 10° E visible
08 Nov ? 03:37:10 10° SW 03:41:36 86° SE 03:45:59 10° NE visible
09 Nov ? 02:07:50 23° SSE 02:08:38 24° SE 02:12:12 10° E visible
09 Nov ? 03:44:58 10° WSW 03:49:20 58° NNW 03:53:39 10° NE visible
10 Nov ? 02:16:09 42° SE 02:16:09 42° SE 02:20:19 10° ENE visible
10 Nov ? 03:52:58 10° W 03:57:07 38° NNW 04:01:14 10° NE visible
11 Nov ? 02:24:12 66° E 02:24:12 66° E 02:28:07 10° ENE visible
11 Nov ? 04:01:08 10° W 04:04:58 28° NNW 04:08:46 10° NE visible
